Location: Newark
(25.4297°S, 49.2719°W)
Time: 11:17:45
(UTC+00:00)

Vanguard 1 Rocket - Pass Details

Date: 26 November 2019
Orbit: 650 x 4226 km, 34.3° (Epoch: 14 December)

Event Time Altitude Azimuth Distance (km) Brightness Sun altitude
Rises 15:08:44 0° 297° (WNW) 5,424 11.4 85.4°
Reaches altitude 10° 15:11:34 10° 297° (WNW) 4,778 11.3 85.2°
Maximum altitude 15:26:57 89° 205° (SSW) 3,394 13.1 83.2°
Drops below altitude 10° 15:53:10 10° 113° (ESE) 7,444 12.0 77.9°
Sets 15:59:02 0° 112° (ESE) 8,422 12.2 76.7°
